QPF
0.01 0.00 0.01 0.01 0.02 0.02 0.01 0.00 0.00 0.00 0.00 0.00 0.00 0.00 0.00 0.00 0.00 0.00 0.00 0.00 0.01 0.01 0.01 0.02 0.03 0.03 0.03 0.05 0.05 0.02 0.02 0.02 0.04 0.05 0.05 0.05 0.05 0.04 0.04 0.04 0.04 0.05 0.06 0.05 0.05 0.04 0.04 0.04 0.04
0.00 0.00 0.01 0.01 0.02 0.02 0.01 0.00 0.00 0.00 0.00 0.00 0.00 0.00 0.00 0.00 0.00 0.00 0.01 0.01 0.01 0.01 0.01 0.01 0.02 0.03 0.03 0.04 0.04 0.03 0.02 0.03 0.04 0.04 0.04 0.03 0.03 0.04 0.04 0.04 0.04 0.06 0.06 0.04 0.03 0.03 0.03 0.02 0.01
0.00 0.00 0.01 0.01 0.01 0.01 0.00 0.00 0.00 0.00 0.00 0.01 0.01 0.01 0.01 0.01 0.00 0.00 0.01 0.01 0.01 0.01 0.01 0.01 0.02 0.03 0.03 0.03 0.04 0.03 0.04 0.03 0.05 0.04 0.03 0.02 0.02 0.03 0.03 0.04 0.05 0.05 0.04 0.02 0.02 0.02 0.02 0.02 0.01
0.00 0.00 0.00 0.01 0.01 0.00 0.00 0.00 0.00 0.00 0.01 0.01 0.01 0.01 0.00 0.00 0.00 0.01 0.01 0.01 0.01 0.01 0.01 0.01 0.02 0.04 0.04 0.03 0.03 0.03 0.03 0.04 0.04 0.04 0.03 0.04 0.04 0.03 0.03 0.03 0.03 0.03 0.03 0.02 0.02 0.02 0.02 0.02 0.01
0.00 0.00 0.00 0.00 0.00 0.00 0.00 0.00 0.00 0.00 0.01 0.01 0.02 0.01 0.01 0.01 0.01 0.01 0.01 0.01 0.01 0.01 0.01 0.02 0.03 0.04 0.05 0.04 0.05 0.04 0.04 0.04 0.05 0.06 0.06 0.07 0.06 0.03 0.02 0.02 0.02 0.02 0.02 0.02 0.02 0.02 0.02 0.02 0.01
0.00 0.00 0.00 0.00 0.00 0.00 0.00 0.00 0.00 0.01 0.01 0.01 0.02 0.02 0.02 0.02 0.02 0.02 0.01 0.01 0.00 0.01 0.01 0.01 0.02 0.05 0.05 0.04 0.04 0.05 0.04 0.05 0.06 0.08 0.10 0.09 0.07 0.05 0.03 0.02 0.02 0.02 0.02 0.02 0.02 0.02 0.02 0.02 0.02
0.00 0.00 0.00 0.00 0.00 0.00 0.00 0.00 0.00 0.01 0.01 0.01 0.01 0.02 0.03 0.04 0.03 0.03 0.01 0.01 0.01 0.01 0.02 0.02 0.03 0.03 0.04 0.05 0.05 0.05 0.04 0.05 0.05 0.06 0.08 0.07 0.06 0.05 0.04 0.03 0.02 0.03 0.02 0.02 0.02 0.02 0.02 0.02 0.02
0.00 0.00 0.00 0.00 0.00 0.00 0.00 0.00 0.00 0.00 0.01 0.01 0.01 0.01 0.02 0.04 0.03 0.03 0.02 0.02 0.02 0.03 0.04 0.05 0.04 0.03 0.04 0.05 0.05 0.04 0.04 0.06 0.06 0.05 0.06 0.05 0.03 0.04 0.04 0.03 0.03 0.02 0.02 0.04 0.04 0.03 0.03 0.03 0.02
0.00 0.00 0.00 0.00 0.01 0.01 0.00 0.00 0.01 0.01 0.01 0.00 0.01 0.00 0.02 0.04 0.03 0.03 0.02 0.02 0.03 0.04 0.05 0.06 0.05 0.04 0.03 0.03 0.05 0.06 0.07 0.07 0.05 0.04 0.05 0.05 0.03 0.02 0.02 0.03 0.05 0.05 0.04 0.04 0.05 0.05 0.04 0.04 0.04
0.01 0.00 0.00 0.00 0.00 0.00 0.00 0.00 0.01 0.01 0.01 0.00 0.00 0.01 0.02 0.04 0.04 0.03 0.02 0.02 0.03 0.04 0.05 0.05 0.06 0.06 0.05 0.03 0.04 0.05 0.07 0.07 0.04 0.03 0.03 0.05 0.04 0.03 0.02 0.03 0.04 0.04 0.04 0.03 0.04 0.05 0.04 0.03 0.03
0.01 0.00 0.00 0.00 0.00 0.00 0.00 0.00 0.01 0.01 0.01 0.01 0.00 0.01 0.01 0.04 0.04 0.02 0.02 0.02 0.03 0.04 0.04 0.04 0.06 0.06 0.05 0.04 0.03 0.03 0.05 0.05 0.03 0.03 0.03 0.03 0.04 0.04 0.04 0.03 0.02 0.02 0.02 0.02 0.02 0.03 0.03 0.02 0.02
0.02 0.01 0.00 0.00 0.00 0.00 0.00 0.00 0.01 0.01 0.01 0.01 0.01 0.00 0.01 0.02 0.02 0.02 0.02 0.02 0.03 0.03 0.04 0.07 0.07 0.05 0.05 0.05 0.04 0.03 0.03 0.04 0.05 0.03 0.03 0.02 0.02 0.02 0.03 0.03 0.03 0.02 0.01 0.01 0.01 0.02 0.02 0.02 0.01
0.01 0.01 0.00 0.00 0.00 0.00 0.00 0.00 0.00 0.00 0.00 0.01 0.01 0.01 0.01 0.01 0.02 0.01 0.01 0.02 0.03 0.04 0.05 0.10 0.09 0.05 0.05 0.05 0.05 0.04 0.03 0.04 0.05 0.04 0.04 0.03 0.02 0.02 0.02 0.02 0.03 0.03 0.02 0.01 0.01 0.01 0.02 0.02 0.01
0.01 0.01 0.00 0.00 0.00 0.00 0.00 0.00 0.00 0.00 0.00 0.01 0.01 0.01 0.01 0.01 0.01 0.01 0.01 0.02 0.03 0.04 0.06 0.12 0.14 0.07 0.06 0.07 0.07 0.05 0.03 0.04 0.05 0.05 0.04 0.03 0.02 0.02 0.03 0.02 0.02 0.02 0.02 0.02 0.01 0.01 0.01 0.02 0.02
0.00 0.00 0.00 0.00 0.00 0.00 0.00 0.00 0.00 0.00 0.00 0.00 0.00 0.01 0.01 0.01 0.01 0.01 0.01 0.01 0.02 0.03 0.06 0.11 0.14 0.10 0.08 0.08 0.07 0.07 0.06 0.04 0.05 0.06 0.05 0.04 0.03 0.02 0.03 0.02 0.02 0.02 0.02 0.02 0.02 0.01 0.01 0.01 0.01
0.00 0.01 0.01 0.00 0.00 0.00 0.00 0.00 0.00 0.00 0.00 0.00 0.00 0.01 0.01 0.01 0.01 0.01 0.01 0.01 0.02 0.03 0.06 0.11 0.13 0.09 0.08 0.08 0.07 0.07 0.07 0.07 0.05 0.06 0.07 0.05 0.04 0.03 0.03 0.03 0.02 0.02 0.02 0.02 0.02 0.02 0.02 0.01 0.01
0.00 0.01 0.01 0.00 0.00 0.00 0.00 0.00 0.00 0.00 0.00 0.00 0.00 0.01 0.01 0.01 0.01 0.01 0.01 0.01 0.02 0.03 0.06 0.10 0.11 0.08 0.06 0.07 0.07 0.06 0.07 0.07 0.06 0.06 0.08 0.07 0.05 0.04 0.04 0.03 0.03 0.03 0.03 0.02 0.02 0.02 0.02 0.02 0.01
0.00 0.00 0.00 0.00 0.00 0.00 0.00 0.00 0.00 0.00 0.00 0.00 0.00 0.00 0.01 0.01 0.01 0.01 0.01 0.01 0.02 0.03 0.04 0.09 0.09 0.07 0.05 0.05 0.05 0.04 0.05 0.06 0.06 0.06 0.06 0.07 0.07 0.05 0.05 0.04 0.04 0.03 0.03 0.03 0.02 0.02 0.02 0.02 0.02
0.00 0.00 0.00 0.00 0.00 0.00 0.00 0.00 0.00 0.01 0.00 0.01 0.01 0.00 0.00 0.00 0.01 0.01 0.01 0.01 0.02 0.03 0.03 0.06 0.08 0.06 0.05 0.05 0.05 0.04 0.04 0.05 0.05 0.05 0.04 0.06 0.07 0.08 0.07 0.06 0.04 0.04 0.03 0.03 0.03 0.03 0.02 0.02 0.03
0.00 0.00 0.00 0.00 0.00 0.00 0.00 0.00 0.00 0.00 0.01 0.01 0.01 0.01 0.00 0.00 0.00 0.01 0.01 0.01 0.02 0.02 0.02 0.04 0.06 0.04 0.04 0.05 0.04 0.03 0.03 0.04 0.05 0.05 0.04 0.04 0.05 0.06 0.08 0.09 0.08 0.06 0.05 0.05 0.04 0.04 0.03 0.03 0.03
0.00 0.00 0.00 0.00 0.00 0.00 0.00 0.00 0.00 0.00 0.00 0.01 0.01 0.01 0.00 0.00 0.00 0.00 0.00 0.02 0.03 0.02 0.01 0.03 0.04 0.03 0.03 0.05 0.05 0.04 0.04 0.03 0.03 0.03 0.04 0.04 0.03 0.05 0.07 0.08 0.09 0.09 0.08 0.07 0.06 0.05 0.05 0.04 0.03
0.00 0.00 0.00 0.00 0.00 0.00 0.00 0.01 0.00 0.00 0.00 0.01 0.01 0.01 0.01 0.01 0.00 0.01 0.00 0.01 0.03 0.03 0.02 0.02 0.03 0.02 0.02 0.04 0.05 0.04 0.05 0.04 0.04 0.03 0.03 0.03 0.03 0.04 0.05 0.06 0.08 0.09 0.09 0.08 0.08 0.07 0.07 0.06 0.05
0.00 0.00 0.00 0.00 0.01 0.01 0.00 0.00 0.00 0.00 0.00 0.00 0.01 0.01 0.01 0.01 0.01 0.01 0.01 0.01 0.02 0.05 0.05 0.03 0.02 0.02 0.01 0.02 0.03 0.03 0.03 0.04 0.04 0.03 0.03 0.03 0.03 0.04 0.04 0.04 0.06 0.08 0.09 0.09 0.10 0.10 0.09 0.09 0.08
0.00 0.01 0.01 0.01 0.01 0.02 0.00 0.00 0.00 0.00 0.00 0.00 0.00 0.01 0.01 0.01 0.01 0.01 0.01 0.02 0.02 0.03 0.06 0.07 0.04 0.02 0.01 0.02 0.03 0.02 0.02 0.03 0.03 0.03 0.03 0.03 0.03 0.03 0.03 0.03 0.03 0.04 0.05 0.06 0.06 0.07 0.08 0.07 0.08
0.01 0.02 0.03 0.04 0.04 0.01 0.00 0.00 0.00 0.00 0.00 0.00 0.01 0.01 0.01 0.01 0.01 0.01 0.01 0.01 0.02 0.02 0.04 0.07 0.07 0.05 0.02 0.03 0.04 0.02 0.01 0.02 0.03 0.03 0.03 0.02 0.02 0.03 0.03 0.02 0.02 0.03 0.04 0.05 0.06 0.06 0.06 0.06 0.06
0.01 0.01 0.02 0.03 0.02 0.00 0.00 0.00 0.00 0.00 0.00 0.00 0.00 0.01 0.01 0.01 0.01 0.01 0.01 0.01 0.01 0.01 0.02 0.04 0.06 0.06 0.05 0.04 0.05 0.03 0.02 0.02 0.02 0.03 0.03 0.03 0.02 0.02 0.02 0.02 0.02 0.02 0.02 0.03 0.05 0.06 0.07 0.06 0.05
0.01 0.01 0.01 0.02 0.01 0.01 0.00 0.00 0.00 0.00 0.00 0.00 0.00 0.01 0.01 0.01 0.01 0.01 0.01 0.01 0.01 0.01 0.01 0.02 0.03 0.04 0.05 0.05 0.06 0.06 0.04 0.03 0.03 0.02 0.02 0.02 0.02 0.02 0.02 0.02 0.02 0.02 0.02 0.02 0.03 0.05 0.08 0.09 0.07
0.01 0.01 0.01 0.02 0.03 0.01 0.00 0.00 0.00 0.00 0.00 0.00 0.00 0.00 0.01 0.01 0.01 0.01 0.01 0.01 0.01 0.01 0.01 0.01 0.01 0.02 0.02 0.03 0.04 0.05 0.06 0.04 0.04 0.03 0.02 0.01 0.01 0.01 0.01 0.01 0.01 0.01 0.01 0.01 0.02 0.03 0.05 0.09 0.10
0.01 0.03 0.02 0.02 0.02 0.01 0.00 0.00 0.00 0.00 0.00 0.00 0.00 0.00 0.00 0.01 0.01 0.01 0.01 0.01 0.01 0.01 0.01 0.01 0.01 0.01 0.01 0.02 0.02 0.03 0.04 0.04 0.04 0.04 0.03 0.01 0.01 0.00 0.00 0.01 0.01 0.01 0.01 0.01 0.01 0.02 0.03 0.05 0.08
0.01 0.02 0.02 0.02 0.02 0.01 0.01 0.00 0.00 0.00 0.00 0.00 0.00 0.00 0.00 0.00 0.01 0.01 0.01 0.01 0.01 0.01 0.01 0.01 0.01 0.01 0.01 0.01 0.01 0.02 0.02 0.03 0.03 0.03 0.03 0.02 0.01 0.01 0.00 0.00 0.00 0.00 0.01 0.01 0.01 0.01 0.02 0.03 0.05
MSLP
1014.86 1015.05 1015.40 1015.85 1016.35 1016.83 1017.25 1017.55 1017.73 1017.77 1017.72 1017.59 1017.41 1017.22 1017.02 1016.83 1016.64 1016.47 1016.32 1016.22 1016.18 1016.22 1016.37 1016.61 1016.94 1017.31 1017.67 1017.99 1018.23 1018.37 1018.42 1018.39 1018.32 1018.26 1018.23 1018.24 1018.30 1018.38 1018.46 1018.52 1018.55 1018.55 1018.53 1018.51 1018.52 1018.56 1018.63 1018.71 1018.79
1015.13 1015.41 1015.83 1016.33 1016.84 1017.30 1017.64 1017.85 1017.91 1017.83 1017.64 1017.40 1017.14 1016.87 1016.63 1016.42 1016.24 1016.10 1015.99 1015.94 1015.96 1016.07 1016.29 1016.59 1016.98 1017.41 1017.82 1018.19 1018.48 1018.66 1018.75 1018.77 1018.74 1018.70 1018.69 1018.70 1018.74 1018.79 1018.84 1018.87 1018.87 1018.85 1018.83 1018.83 1018.85 1018.91 1019.00 1019.09 1019.16
1015.48 1015.82 1016.27 1016.77 1017.24 1017.63 1017.88 1017.98 1017.92 1017.72 1017.44 1017.11 1016.78 1016.48 1016.22 1016.02 1015.86 1015.76 1015.71 1015.73 1015.82 1016.00 1016.28 1016.65 1017.08 1017.54 1017.99 1018.38 1018.70 1018.93 1019.07 1019.13 1019.15 1019.16 1019.17 1019.18 1019.21 1019.23 1019.23 1019.22 1019.19 1019.15 1019.13 1019.13 1019.17 1019.25 1019.35 1019.45 1019.52
1015.89 1016.25 1016.68 1017.13 1017.52 1017.81 1017.95 1017.93 1017.77 1017.49 1017.14 1016.77 1016.41 1016.11 1015.86 1015.69 1015.58 1015.54 1015.57 1015.66 1015.84 1016.09 1016.43 1016.83 1017.28 1017.75 1018.20 1018.60 1018.92 1019.17 1019.35 1019.46 1019.54 1019.59 1019.63 1019.66 1019.68 1019.68 1019.65 1019.60 1019.54 1019.48 1019.45 1019.46 1019.51 1019.60 1019.71 1019.81 1019.88
1016.29 1016.64 1017.03 1017.39 1017.67 1017.84 1017.87 1017.75 1017.51 1017.18 1016.81 1016.45 1016.12 1015.85 1015.66 1015.54 1015.51 1015.54 1015.65 1015.83 1016.08 1016.40 1016.78 1017.20 1017.64 1018.08 1018.49 1018.86 1019.16 1019.40 1019.59 1019.74 1019.86 1019.96 1020.04 1020.10 1020.13 1020.12 1020.08 1020.01 1019.93 1019.86 1019.83 1019.84 1019.90 1020.00 1020.11 1020.20 1020.26
1016.66 1016.97 1017.28 1017.54 1017.71 1017.75 1017.68 1017.49 1017.22 1016.90 1016.57 1016.26 1016.01 1015.83 1015.72 1015.69 1015.74 1015.86 1016.05 1016.31 1016.63 1016.99 1017.39 1017.79 1018.19 1018.57 1018.90 1019.18 1019.42 1019.62 1019.80 1019.96 1020.12 1020.27 1020.39 1020.49 1020.55 1020.55 1020.51 1020.44 1020.36 1020.29 1020.26 1020.28 1020.34 1020.44 1020.53 1020.61 1020.65
1016.96 1017.23 1017.45 1017.60 1017.66 1017.61 1017.47 1017.26 1017.01 1016.76 1016.53 1016.35 1016.22 1016.16 1016.17 1016.24 1016.37 1016.58 1016.84 1017.15 1017.51 1017.88 1018.26 1018.62 1018.94 1019.21 1019.42 1019.59 1019.73 1019.86 1019.99 1020.15 1020.33 1020.51 1020.68 1020.83 1020.92 1020.96 1020.94 1020.88 1020.82 1020.76 1020.74 1020.76 1020.82 1020.90 1020.98 1021.03 1021.04
1017.19 1017.42 1017.56 1017.62 1017.59 1017.48 1017.32 1017.15 1016.99 1016.87 1016.80 1016.79 1016.84 1016.93 1017.07 1017.25 1017.47 1017.73 1018.03 1018.36 1018.72 1019.07 1019.39 1019.66 1019.86 1019.99 1020.05 1020.07 1020.08 1020.11 1020.19 1020.32 1020.50 1020.71 1020.93 1021.11 1021.25 1021.32 1021.33 1021.31 1021.26 1021.23 1021.22 1021.25 1021.31 1021.37 1021.42 1021.43 1021.40
1017.39 1017.57 1017.66 1017.65 1017.56 1017.44 1017.31 1017.23 1017.22 1017.29 1017.44 1017.66 1017.91 1018.19 1018.46 1018.74 1019.02 1019.31 1019.61 1019.92 1020.22 1020.50 1020.72 1020.87 1020.92 1020.87 1020.77 1020.63 1020.50 1020.42 1020.42 1020.51 1020.68 1020.91 1021.15 1021.36 1021.53 1021.63 1021.68 1021.68 1021.66 1021.65 1021.66 1021.69 1021.74 1021.79 1021.81 1021.79 1021.73
1017.58 1017.72 1017.76 1017.71 1017.61 1017.52 1017.48 1017.55 1017.74 1018.05 1018.46 1018.93 1019.41 1019.87 1020.28 1020.64 1020.96 1021.24 1021.50 1021.74 1021.95 1022.11 1022.20 1022.18 1022.06 1021.84 1021.55 1021.24 1020.97 1020.77 1020.69 1020.74 1020.89 1021.11 1021.36 1021.60 1021.78 1021.90 1021.96 1021.97 1021.97 1021.98 1022.01 1022.06 1022.11 1022.15 1022.15 1022.10 1022.01
1017.77 1017.88 1017.88 1017.82 1017.74 1017.72 1017.81 1018.07 1018.49 1019.08 1019.77 1020.51 1021.23 1021.87 1022.41 1022.84 1023.17 1023.41 1023.59 1023.73 1023.81 1023.82 1023.74 1023.54 1023.23 1022.83 1022.36 1021.90 1021.49 1021.19 1021.03 1021.03 1021.15 1021.36 1021.61 1021.84 1022.02 1022.13 1022.18 1022.20 1022.20 1022.22 1022.26 1022.32 1022.38 1022.42 1022.42 1022.37 1022.27
1017.96 1018.03 1018.01 1017.95 1017.91 1017.99 1018.24 1018.71 1019.39 1020.27 1021.25 1022.25 1023.20 1024.02 1024.67 1025.15 1025.46 1025.64 1025.73 1025.73 1025.66 1025.51 1025.25 1024.88 1024.39 1023.82 1023.20 1022.59 1022.07 1021.68 1021.46 1021.41 1021.51 1021.69 1021.91 1022.12 1022.27 1022.35 1022.37 1022.36 1022.35 1022.37 1022.41 1022.48 1022.57 1022.63 1022.64 1022.60 1022.51
1018.11 1018.15 1018.11 1018.06 1018.08 1018.27 1018.69 1019.37 1020.32 1021.47 1022.72 1023.98 1025.14 1026.11 1026.85 1027.36 1027.65 1027.76 1027.74 1027.62 1027.40 1027.09 1026.67 1026.14 1025.51 1024.79 1024.04 1023.32 1022.71 1022.26 1021.99 1021.90 1021.96 1022.12 1022.31 1022.47 1022.58 1022.61 1022.58 1022.52 1022.48 1022.47 1022.51 1022.59 1022.69 1022.78 1022.83 1022.82 1022.75
1018.17 1018.17 1018.12 1018.09 1018.19 1018.49 1019.07 1019.97 1021.15 1022.55 1024.05 1025.53 1026.86 1027.96 1028.78 1029.31 1029.57 1029.61 1029.50 1029.26 1028.92 1028.48 1027.95 1027.29 1026.54 1025.72 1024.88 1024.10 1023.43 1022.92 1022.62 1022.51 1022.55 1022.68 1022.83 1022.95 1022.99 1022.95 1022.85 1022.73 1022.63 1022.58 1022.60 1022.68 1022.79 1022.91 1022.99 1023.01 1022.98
1018.12 1018.09 1018.03 1018.04 1018.20 1018.62 1019.36 1020.44 1021.83 1023.44 1025.15 1026.80 1028.27 1029.47 1030.34 1030.88 1031.12 1031.11 1030.92 1030.61 1030.19 1029.67 1029.05 1028.33 1027.51 1026.64 1025.75 1024.93 1024.23 1023.70 1023.38 1023.25 1023.27 1023.38 1023.49 1023.55 1023.53 1023.42 1023.24 1023.04 1022.87 1022.76 1022.74 1022.79 1022.90 1023.03 1023.13 1023.18 1023.18
1017.96 1017.91 1017.87 1017.91 1018.14 1018.66 1019.54 1020.78 1022.35 1024.13 1026.00 1027.79 1029.36 1030.63 1031.53 1032.07 1032.29 1032.24 1032.02 1031.66 1031.20 1030.65 1030.02 1029.28 1028.45 1027.56 1026.67 1025.83 1025.13 1024.60 1024.27 1024.13 1024.13 1024.21 1024.29 1024.31 1024.22 1024.04 1023.78 1023.49 1023.23 1023.05 1022.96 1022.97 1023.05 1023.15 1023.25 1023.32 1023.33
1017.75 1017.70 1017.67 1017.75 1018.05 1018.67 1019.67 1021.05 1022.75 1024.68 1026.66 1028.55 1030.19 1031.50 1032.42 1032.95 1033.15 1033.08 1032.84 1032.47 1032.02 1031.49 1030.88 1030.18 1029.38 1028.53 1027.66 1026.84 1026.14 1025.62 1025.28 1025.13 1025.12 1025.18 1025.22 1025.19 1025.05 1024.80 1024.46 1024.08 1023.73 1023.46 1023.29 1023.22 1023.24 1023.31 1023.38 1023.42 1023.42
1017.56 1017.52 1017.51 1017.63 1018.00 1018.71 1019.81 1021.30 1023.12 1025.15 1027.23 1029.18 1030.87 1032.20 1033.12 1033.64 1033.83 1033.75 1033.51 1033.16 1032.74 1032.26 1031.71 1031.08 1030.36 1029.56 1028.74 1027.96 1027.28 1026.75 1026.41 1026.25 1026.21 1026.24 1026.25 1026.19 1026.00 1025.68 1025.27 1024.81 1024.37 1023.99 1023.72 1023.56 1023.50 1023.49 1023.51 1023.50 1023.47
1017.51 1017.47 1017.47 1017.63 1018.05 1018.82 1020.00 1021.59 1023.51 1025.63 1027.78 1029.79 1031.52 1032.86 1033.77 1034.28 1034.45 1034.37 1034.13 1033.81 1033.44 1033.03 1032.57 1032.02 1031.39 1030.67 1029.92 1029.18 1028.52 1027.99 1027.63 1027.44 1027.37 1027.36 1027.34 1027.24 1027.01 1026.65 1026.17 1025.63 1025.10 1024.63 1024.26 1023.99 1023.83 1023.74 1023.67 1023.60 1023.51
1017.66 1017.59 1017.59 1017.76 1018.20 1019.02 1020.26 1021.92 1023.92 1026.12 1028.35 1030.42 1032.19 1033.55 1034.47 1034.98 1035.13 1035.04 1034.81 1034.51 1034.19 1033.84 1033.47 1033.02 1032.48 1031.85 1031.16 1030.47 1029.82 1029.29 1028.91 1028.67 1028.56 1028.51 1028.44 1028.30 1028.03 1027.63 1027.10 1026.51 1025.90 1025.34 1024.87 1024.51 1024.25 1024.07 1023.92 1023.78 1023.62
1018.05 1017.93 1017.88 1018.02 1018.45 1019.27 1020.55 1022.26 1024.33 1026.62 1028.93 1031.07 1032.90 1034.31 1035.25 1035.76 1035.91 1035.81 1035.58 1035.29 1035.00 1034.72 1034.41 1034.05 1033.60 1033.06 1032.44 1031.78 1031.15 1030.61 1030.19 1029.91 1029.74 1029.63 1029.51 1029.33 1029.02 1028.58 1028.02 1027.38 1026.72 1026.09 1025.55 1025.11 1024.77 1024.51 1024.30 1024.09 1023.88
1018.66 1018.46 1018.31 1018.36 1018.73 1019.52 1020.79 1022.54 1024.67 1027.03 1029.43 1031.68 1033.59 1035.07 1036.06 1036.60 1036.76 1036.66 1036.42 1036.14 1035.87 1035.62 1035.37 1035.08 1034.71 1034.24 1033.68 1033.07 1032.45 1031.89 1031.43 1031.10 1030.86 1030.69 1030.52 1030.28 1029.95 1029.48 1028.89 1028.22 1027.53 1026.86 1026.27 1025.79 1025.40 1025.09 1024.84 1024.59 1024.34
1019.45 1019.12 1018.84 1018.76 1019.01 1019.72 1020.95 1022.68 1024.85 1027.29 1029.79 1032.14 1034.17 1035.75 1036.82 1037.41 1037.60 1037.52 1037.28 1036.99 1036.73 1036.50 1036.28 1036.05 1035.74 1035.34 1034.84 1034.26 1033.66 1033.09 1032.60 1032.21 1031.91 1031.67 1031.44 1031.16 1030.79 1030.30 1029.70 1029.02 1028.32 1027.64 1027.04 1026.53 1026.13 1025.81 1025.55 1025.29 1025.03
1020.36 1019.88 1019.44 1019.18 1019.28 1019.86 1020.99 1022.69 1024.86 1027.35 1029.94 1032.41 1034.56 1036.25 1037.43 1038.11 1038.36 1038.30 1038.07 1037.78 1037.51 1037.29 1037.10 1036.90 1036.64 1036.30 1035.86 1035.32 1034.75 1034.18 1033.66 1033.22 1032.86 1032.56 1032.27 1031.95 1031.55 1031.04 1030.45 1029.78 1029.08 1028.42 1027.83 1027.33 1026.94 1026.64 1026.39 1026.16 1025.91
1021.37 1020.74 1020.12 1019.68 1019.59 1020.00 1021.00 1022.61 1024.75 1027.25 1029.90 1032.46 1034.73 1036.55 1037.85 1038.63 1038.95 1038.93 1038.73 1038.45 1038.18 1037.95 1037.78 1037.61 1037.40 1037.11 1036.71 1036.23 1035.69 1035.12 1034.59 1034.12 1033.71 1033.36 1033.03 1032.67 1032.24 1031.74 1031.15 1030.50 1029.83 1029.19 1028.63 1028.16 1027.81 1027.54 1027.33 1027.14 1026.93
1022.47 1021.72 1020.95 1020.32 1020.03 1020.26 1021.09 1022.57 1024.61 1027.08 1029.74 1032.36 1034.71 1036.64 1038.05 1038.93 1039.34 1039.39 1039.22 1038.96 1038.70 1038.48 1038.31 1038.17 1037.99 1037.75 1037.42 1036.98 1036.47 1035.94 1035.40 1034.91 1034.48 1034.09 1033.72 1033.34 1032.90 1032.39 1031.82 1031.19 1030.56 1029.96 1029.43 1029.00 1028.69 1028.46 1028.30 1028.15 1027.98
1023.67 1022.86 1021.97 1021.19 1020.73 1020.76 1021.40 1022.71 1024.61 1026.98 1029.59 1032.20 1034.59 1036.59 1038.09 1039.06 1039.55 1039.67 1039.56 1039.33 1039.09 1038.88 1038.73 1038.61 1038.47 1038.27 1037.98 1037.59 1037.13 1036.62 1036.11 1035.62 1035.17 1034.76 1034.37 1033.97 1033.53 1033.03 1032.48 1031.89 1031.28 1030.72 1030.23 1029.83 1029.55 1029.35 1029.23 1029.12 1028.99
1024.99 1024.18 1023.24 1022.35 1021.74 1021.59 1022.05 1023.15 1024.87 1027.08 1029.57 1032.11 1034.47 1036.48 1038.02 1039.06 1039.63 1039.82 1039.76 1039.58 1039.37 1039.19 1039.06 1038.95 1038.84 1038.68 1038.44 1038.10 1037.68 1037.21 1036.71 1036.23 1035.79 1035.37 1034.98 1034.58 1034.15 1033.67 1033.14 1032.58 1032.01 1031.47 1031.01 1030.63 1030.36 1030.19 1030.07 1029.99 1029.89
1026.39 1025.64 1024.71 1023.79 1023.08 1022.79 1023.06 1023.95 1025.46 1027.46 1029.76 1032.16 1034.43 1036.39 1037.93 1039.00 1039.62 1039.88 1039.88 1039.76 1039.59 1039.44 1039.33 1039.25 1039.17 1039.04 1038.83 1038.53 1038.15 1037.71 1037.25 1036.79 1036.35 1035.95 1035.56 1035.17 1034.76 1034.31 1033.81 1033.28 1032.74 1032.22 1031.77 1031.40 1031.13 1030.94 1030.83 1030.74 1030.64
1027.74 1027.11 1026.26 1025.35 1024.61 1024.23 1024.34 1025.04 1026.32 1028.09 1030.17 1032.37 1034.48 1036.34 1037.83 1038.90 1039.56 1039.87 1039.94 1039.88 1039.76 1039.66 1039.58 1039.52 1039.46 1039.35 1039.17 1038.91 1038.56 1038.15 1037.72 1037.28 1036.87 1036.48 1036.11 1035.74 1035.36 1034.94 1034.47 1033.97 1033.46 1032.97 1032.52 1032.14 1031.85 1031.64 1031.50 1031.39 1031.28
Thickness
5686 5690 5694 5693 5685 5679 5679 5684 5687 5685 5686 5688 5690 5693 5696 5693 5691 5684 5677 5679 5680 5680 5681 5683 5685 5686 5687 5688 5689 5690 5690 5691 5691 5691 5692 5692 5692 5692 5693 5693 5693 5693 5694 5695 5695 5695 5695 5695 5695
5683 5686 5687 5683 5676 5670 5674 5681 5679 5682 5682 5679 5681 5684 5685 5681 5677 5674 5672 5672 5674 5675 5676 5678 5679 5680 5681 5682 5684 5685 5685 5686 5686 5686 5686 5686 5687 5687 5687 5687 5687 5688 5688 5689 5689 5690 5690 5690 5690
5678 5681 5678 5673 5668 5671 5672 5675 5677 5673 5673 5674 5673 5674 5675 5671 5667 5666 5665 5666 5668 5669 5670 5672 5673 5674 5675 5676 5678 5679 5680 5680 5681 5681 5681 5681 5681 5681 5681 5681 5682 5682 5682 5682 5683 5683 5683 5683 5684
5674 5672 5669 5665 5662 5666 5670 5669 5668 5666 5665 5666 5668 5665 5663 5657 5658 5658 5658 5660 5662 5663 5664 5665 5666 5668 5669 5670 5671 5672 5673 5674 5675 5675 5676 5676 5675 5675 5675 5675 5676 5676 5676 5676 5677 5677 5677 5677 5678
5668 5665 5658 5656 5658 5660 5660 5660 5660 5662 5661 5659 5661 5660 5656 5649 5650 5650 5651 5653 5655 5656 5657 5659 5659 5661 5662 5663 5664 5665 5666 5668 5668 5669 5669 5670 5669 5669 5669 5669 5669 5670 5670 5670 5670 5671 5671 5671 5672
5657 5657 5653 5652 5654 5653 5653 5652 5654 5655 5654 5651 5652 5652 5648 5642 5642 5642 5644 5645 5647 5648 5649 5651 5652 5653 5654 5656 5657 5658 5659 5661 5661 5661 5662 5663 5663 5663 5663 5663 5663 5663 5664 5664 5664 5664 5665 5665 5665
5649 5648 5648 5650 5648 5646 5645 5645 5647 5648 5646 5643 5645 5645 5640 5635 5634 5634 5636 5637 5639 5640 5642 5643 5645 5646 5647 5648 5649 5651 5652 5653 5653 5654 5654 5655 5655 5656 5656 5656 5656 5657 5657 5657 5657 5658 5658 5658 5658
5645 5643 5639 5640 5641 5641 5639 5636 5636 5638 5637 5633 5635 5638 5635 5629 5625 5627 5628 5629 5630 5632 5633 5635 5637 5639 5640 5641 5641 5642 5643 5644 5645 5646 5647 5647 5648 5648 5648 5649 5649 5649 5650 5650 5650 5650 5650 5650 5650
5636 5633 5634 5635 5635 5635 5630 5629 5626 5625 5626 5622 5622 5623 5620 5618 5618 5619 5620 5621 5622 5623 5624 5626 5629 5631 5632 5633 5633 5634 5635 5636 5637 5638 5639 5640 5640 5640 5640 5641 5641 5641 5641 5642 5642 5642 5642 5642 5643
5627 5626 5629 5627 5629 5627 5622 5622 5619 5620 5619 5616 5614 5609 5607 5608 5610 5612 5612 5613 5613 5614 5615 5617 5620 5622 5624 5625 5626 5626 5627 5628 5629 5630 5631 5632 5632 5633 5632 5632 5633 5633 5633 5634 5634 5634 5634 5635 5636
5617 5618 5616 5614 5615 5616 5614 5612 5611 5616 5613 5612 5611 5605 5600 5600 5601 5603 5604 5604 5604 5605 5606 5607 5610 5612 5615 5617 5618 5618 5619 5619 5620 5621 5622 5623 5624 5624 5624 5625 5625 5625 5625 5626 5626 5627 5627 5628 5628
5605 5602 5603 5603 5601 5604 5605 5603 5602 5603 5603 5598 5599 5598 5594 5594 5594 5594 5594 5594 5594 5596 5597 5598 5601 5604 5605 5607 5608 5610 5611 5611 5611 5611 5613 5614 5615 5615 5615 5616 5616 5617 5617 5618 5618 5619 5619 5620 5620
5597 5593 5591 5590 5591 5592 5593 5593 5593 5591 5588 5586 5586 5586 5586 5586 5585 5583 5583 5583 5585 5586 5587 5589 5592 5595 5596 5598 5599 5600 5601 5602 5602 5603 5604 5605 5605 5605 5605 5606 5606 5607 5608 5609 5610 5611 5611 5611 5611
5588 5586 5584 5584 5584 5584 5584 5584 5583 5585 5580 5578 5577 5577 5576 5576 5576 5575 5575 5575 5576 5577 5577 5579 5581 5584 5586 5588 5589 5590 5591 5592 5593 5594 5594 5595 5595 5595 5596 5596 5597 5597 5598 5599 5600 5601 5601 5601 5601
5578 5579 5578 5577 5577 5576 5578 5581 5579 5577 5572 5572 5570 5568 5567 5567 5567 5567 5566 5566 5567 5567 5568 5569 5571 5574 5577 5578 5579 5580 5581 5582 5583 5584 5584 5584 5585 5585 5585 5586 5586 5587 5587 5588 5589 5591 5591 5592 5592
5574 5576 5578 5573 5570 5569 5573 5586 5577 5568 5566 5567 5564 5561 5559 5559 5558 5558 5557 5557 5557 5558 5559 5560 5561 5564 5567 5568 5569 5570 5571 5572 5572 5573 5573 5573 5574 5575 5575 5576 5576 5576 5577 5578 5579 5580 5582 5582 5582
5570 5573 5575 5568 5562 5562 5568 5578 5568 5559 5558 5560 5558 5555 5553 5551 5550 5549 5548 5548 5548 5548 5550 5551 5552 5554 5556 5557 5558 5559 5560 5560 5561 5562 5562 5563 5564 5564 5565 5566 5566 5566 5567 5568 5568 5569 5570 5572 5572
5568 5569 5565 5564 5557 5554 5560 5566 5561 5554 5551 5554 5552 5549 5546 5545 5543 5540 5539 5539 5538 5539 5540 5541 5542 5543 5544 5546 5548 5548 5549 5549 5550 5550 5551 5552 5553 5554 5554 5555 5555 5556 5556 5557 5557 5558 5558 5560 5561
5557 5558 5558 5555 5544 5545 5555 5557 5558 5552 5547 5547 5546 5543 5541 5538 5534 5531 5530 5529 5529 5530 5531 5531 5531 5532 5533 5535 5537 5537 5538 5538 5538 5538 5539 5539 5541 5542 5543 5544 5544 5544 5545 5546 5546 5546 5547 5548 5548
5544 5547 5549 5542 5532 5535 5543 5549 5551 5546 5541 5539 5538 5537 5534 5530 5526 5523 5521 5520 5520 5520 5520 5521 5520 5521 5522 5522 5523 5524 5524 5525 5525 5525 5525 5526 5528 5529 5530 5531 5532 5532 5533 5534 5534 5534 5535 5536 5536
5537 5539 5539 5532 5525 5524 5528 5551 5549 5541 5532 5529 5528 5526 5524 5521 5518 5515 5512 5511 5510 5510 5509 5510 5509 5509 5510 5510 5511 5511 5511 5513 5513 5513 5513 5513 5515 5516 5517 5518 5519 5519 5520 5521 5521 5522 5523 5524 5524
5534 5525 5521 5518 5523 5531 5521 5543 5555 5537 5528 5524 5521 5517 5515 5512 5509 5506 5503 5501 5500 5499 5498 5498 5498 5497 5497 5498 5499 5500 5501 5502 5501 5500 5500 5500 5501 5502 5503 5504 5504 5506 5506 5508 5508 5509 5510 5511 5513
5519 5510 5509 5508 5510 5512 5513 5516 5551 5524 5526 5523 5516 5510 5506 5502 5499 5496 5493 5490 5489 5488 5487 5486 5486 5485 5485 5486 5486 5487 5487 5488 5487 5486 5486 5487 5488 5488 5488 5489 5490 5491 5493 5494 5495 5495 5496 5497 5499
5500 5501 5498 5497 5502 5508 5511 5513 5543 5534 5526 5521 5509 5501 5496 5492 5488 5484 5481 5478 5477 5476 5475 5474 5474 5474 5473 5473 5473 5474 5475 5475 5475 5474 5474 5474 5474 5474 5474 5475 5475 5477 5478 5479 5480 5481 5483 5484 5485
5495 5503 5507 5508 5508 5520 5488 5496 5526 5520 5509 5504 5498 5493 5486 5481 5479 5474 5471 5468 5466 5465 5463 5462 5462 5462 5461 5461 5461 5462 5461 5462 5462 5461 5461 5460 5460 5461 5461 5461 5461 5462 5463 5464 5465 5467 5469 5470 5470
5490 5497 5505 5508 5516 5519 5479 5497 5521 5496 5486 5482 5480 5478 5473 5469 5467 5464 5460 5457 5455 5453 5451 5450 5449 5449 5449 5449 5449 5449 5448 5448 5448 5447 5446 5446 5446 5446 5446 5446 5447 5448 5449 5450 5451 5453 5454 5455 5456
5483 5486 5484 5485 5474 5480 5504 5503 5502 5485 5478 5473 5469 5466 5463 5459 5455 5451 5447 5444 5442 5440 5438 5437 5436 5436 5436 5436 5436 5435 5434 5433 5433 5433 5432 5432 5431 5431 5431 5432 5433 5434 5435 5436 5437 5439 5440 5440 5442
5469 5473 5469 5474 5481 5495 5504 5498 5511 5491 5481 5470 5462 5458 5454 5448 5443 5439 5434 5431 5428 5426 5424 5423 5423 5422 5422 5422 5422 5421 5420 5419 5418 5418 5418 5417 5417 5416 5417 5417 5418 5419 5420 5421 5422 5424 5426 5426 5428
5455 5455 5461 5469 5467 5482 5495 5510 5491 5482 5471 5462 5454 5448 5442 5437 5432 5427 5422 5418 5415 5413 5411 5409 5409 5408 5407 5407 5407 5407 5406 5404 5403 5403 5403 5402 5402 5402 5402 5402 5403 5404 5406 5407 5408 5410 5412 5413 5414
5449 5456 5456 5463 5459 5453 5473 5493 5460 5455 5447 5443 5439 5432 5428 5423 5418 5413 5409 5406 5403 5400 5398 5396 5395 5394 5393 5392 5391 5392 5391 5390 5389 5389 5388 5387 5387 5387 5387 5387 5388 5389 5390 5391 5393 5395 5397 5399 5401